"Pseudo-MPEC" for S001309

Created 2025 Jun 17 16:35:05 UT using Find_Orb

Click here for an explanation of pseudo-MPECs

 
 Astrometry: 
     S001309*KB2025 06 05.15470717 04 06.502-22 47 07.61   ~65Bl 18.8 VZNEOCPY05
     S001309 KB2025 06 05.17424117 04 07.071-22 47 03.72   ~65Bl 19.3 VZNEOCPY05
     S001309 KB2025 06 05.18551017 04 07.310-22 47 02.73   ~65Bl 19.2 VZNEOCPY05

Station data:
(Y05) SONEAR Wykrota-CEAMIG, Serra da Piedade  (S19.824251 W43.690000)
   Brazil.  Observer C. Jacques. 0.45-m f/2.9 reflector + CMO.

Orbital elements:  S001309
   Perihelion 2025 Jul 27.86196 +/- 45.8 TT = 20:41:13 (JD 2460884.36196)
Epoch 2025 Jun  5.0 TT = JDT 2460831.5   Earth MOID: 0.1370   Ma: 0.0170
M 344.54247604 +/- 17               (J2000 ecliptic)             AutoNEOCP
n   0.29241298 +/- 0.253            Peri.   48.07698 +/- 54
a   2.24804471 +/- 1.29             Node   254.33504 +/- 2.7
e   0.4874488 +/- 0.249             Incl.    0.85106 +/- 0.6
P   3.37060                H 21.11  G  0.15   U 11.8  SR
q 1.15223783 +/- 0.319    Q 3.34385160 +/- 134
From 3 observations 2025 June 5 (44.4 min); mean residual 0".39
Residuals in arcseconds: 
250605 Y05  .19-  .20-    250605 Y05  .53+  .55+    250605 Y05  .35-  .35-    

Ephemerides (geocentric):
Date (UTC) HH   RA             Dec           delta  r     elong  mag " sig PA
---- --------  ------------   ------------  ------ ------ -----  --- --------
2025 06 17 17  17 14 42.908   -22 08 46.70  .22011 1.2347 173.1 18.7  48d 102
2025 06 17 18  17 14 45.640   -22 08 37.41  .21995 1.2346 173.0 18.7  48d 102
2025 06 17 19  17 14 48.378   -22 08 28.10  .21980 1.2344 173.0 18.7  48d 102
2025 06 17 20  17 14 51.120   -22 08 18.78  .21964 1.2342 173.0 18.7  49d 102
2025 06 17 21  17 14 53.869   -22 08 09.45  .21949 1.2341 172.9 18.7  49d 102
2025 06 17 22  17 14 56.622   -22 08 00.11  .21934 1.2339 172.9 18.7  49d 103
2025 06 17 23  17 14 59.381   -22 07 50.76  .21918 1.2337 172.9 18.7  49d 103
2025 06 18 00  17 15 02.145   -22 07 41.39  .21903 1.2336 172.9 18.7  49d 103
2025 06 18 01  17 15 04.915   -22 07 32.02  .21888 1.2334 172.8 18.7  49d 103
2025 06 18 02  17 15 07.690   -22 07 22.63  .21872 1.2333 172.8 18.7  49d 103
2025 06 18 03  17 15 10.470   -22 07 13.24  .21857 1.2331 172.8 18.7  49d 103
2025 06 18 04  17 15 13.256   -22 07 03.83  .21842 1.2329 172.7 18.7  49d 103
2025 06 18 05  17 15 16.047   -22 06 54.41  .21826 1.2328 172.7 18.7  50d 103
2025 06 18 06  17 15 18.844   -22 06 44.98  .21811 1.2326 172.7 18.7  50d 103
2025 06 18 07  17 15 21.646   -22 06 35.54  .21796 1.2325 172.7 18.7  50d 103
2025 06 18 08  17 15 24.454   -22 06 26.09  .21781 1.2323 172.6 18.7  50d 103
2025 06 18 09  17 15 27.267   -22 06 16.62  .21765 1.2321 172.6 18.7  50d 103
2025 06 18 10  17 15 30.086   -22 06 07.15  .21750 1.2320 172.6 18.7  50d 103
2025 06 18 11  17 15 32.910   -22 05 57.66  .21735 1.2318 172.5 18.7  50d 103
2025 06 18 12  17 15 35.740   -22 05 48.17  .21720 1.2317 172.5 18.7  50d 103
2025 06 18 13  17 15 38.575   -22 05 38.66  .21705 1.2315 172.5 18.7  50d 103
2025 06 18 14  17 15 41.416   -22 05 29.14  .21690 1.2314 172.4 18.7  51d 103
2025 06 18 15  17 15 44.262   -22 05 19.61  .21675 1.2312 172.4 18.7  51d 103
2025 06 18 16  17 15 47.114   -22 05 10.07  .21660 1.2310 172.4 18.7  51d 103
2025 06 18 17  17 15 49.972   -22 05 00.52  .21644 1.2309 172.4 18.7  51d 103
2025 06 18 18  17 15 52.835   -22 04 50.96  .21629 1.2307 172.3 18.7  51d 103
2025 06 18 19  17 15 55.704   -22 04 41.38  .21614 1.2306 172.3 18.7  51d 103
2025 06 18 20  17 15 58.578   -22 04 31.80  .21599 1.2304 172.3 18.7  51d 103
2025 06 18 21  17 16 01.458   -22 04 22.20  .21584 1.2302 172.2 18.7  51d 103
2025 06 18 22  17 16 04.344   -22 04 12.59  .21569 1.2301 172.2 18.7  51d 103
2025 06 18 23  17 16 07.235   -22 04 02.98  .21554 1.2299 172.2 18.7  51d 103
2025 06 19 00  17 16 10.132   -22 03 53.35  .21539 1.2298 172.2 18.7  51d 103
2025 06 19 01  17 16 13.035   -22 03 43.71  .21524 1.2296 172.1 18.7  51d 103
2025 06 19 02  17 16 15.944   -22 03 34.05  .21510 1.2295 172.1 18.7  51d 103
2025 06 19 03  17 16 18.858   -22 03 24.39  .21495 1.2293 172.1 18.7  51d 103
2025 06 19 04  17 16 21.778   -22 03 14.72  .21480 1.2291 172.0 18.7  52d 103
2025 06 19 05  17 16 24.704   -22 03 05.03  .21465 1.2290 172.0 18.7  52d 103
2025 06 19 06  17 16 27.635   -22 02 55.34  .21450 1.2288 172.0 18.7  52d 103
2025 06 19 07  17 16 30.573   -22 02 45.63  .21435 1.2287 172.0 18.7  52d 103
2025 06 19 08  17 16 33.516   -22 02 35.91  .21420 1.2285 171.9 18.7  52d 103
2025 06 19 09  17 16 36.465   -22 02 26.18  .21406 1.2284 171.9 18.7  52d 103
2025 06 19 10  17 16 39.420   -22 02 16.44  .21391 1.2282 171.9 18.7  52d 103
2025 06 19 11  17 16 42.380   -22 02 06.69  .21376 1.2280 171.8 18.7  52d 103
2025 06 19 12  17 16 45.347   -22 01 56.93  .21361 1.2279 171.8 18.7  52d 103
2025 06 19 13  17 16 48.319   -22 01 47.16  .21346 1.2277 171.8 18.7  52d 103
2025 06 19 14  17 16 51.297   -22 01 37.37  .21332 1.2276 171.8 18.7  52d 103
2025 06 19 15  17 16 54.282   -22 01 27.58  .21317 1.2274 171.7 18.7  52d 103
2025 06 19 16  17 16 57.272   -22 01 17.77  .21302 1.2273 171.7 18.7  52d 103